Tracking 28091 objects as of 29-Sep-2023
HD Live streaming from Space Station
objects crossing your sky now

FENGYUN 1C DEB

Track FENGYUN 1C DEB now!
10-day predictions


NORAD ID: 35236
Int'l Code: 1999-025DQU
Perigee: 700.1 km
Apogee: 836.2 km
Inclination: 98.8 °
Period: 100.1 minutes
Semi major axis: 7139 km
RCS: 0.0131 m2 (small)
Launch date: May 10, 1999
Source: People's Republic of China (PRC)
Launch site: Taiyaun Space Center, China (TSC)

Note: This is SATELLITE DEBRIS
Your satellite tracking list
Your tracking list is empty




NASA's NSSDC Master Catalog

Two Line Element Set (TLE):
1 35236U 99025DQU 23267.92407037  .00002587  00000-0  80566-3 0  9996
2 35236  98.8312 157.8170 0095334  83.0982 278.1039 14.39233980864353
Source of the keplerian elements: AFSPC